Location: Cincinnati Observatory Center
(39.1389°N, 84.4225°W)
Time: 01:30:08
(UTC-04:00)

Amateur Radio Satellites - All Passes

Search period start: 16 April 2014 01:00
Search period end: 17 April 2014 01:00
Location: Cincinnati Observatory Center, 39.1389°N, 84.4225°W

Satellite Date Start Highest point End Downlink Frequencies (MHz)
Time Altitude Azimuth
SO-50 16 Apr 01:15:24 01:18:54 21° 46° (NE) 01:22:26 436.795 FM
PCSat 16 Apr 01:25:58 01:30:19 26° 107° (ESE) 01:34:43 145.825 MHz
ISS 16 Apr 01:30:37 01:33:05 19° 229° (SW) 01:35:32 145.800 FM
OPAL 16 Apr 01:48:04 01:48:31 10° 56° (NE) 01:48:58 ?
Sapphire 16 Apr 02:22:40 02:28:03 77° 116° (ESE) 02:33:29 437.095 MHz 1200 baud AX-25 AFSK
AO-27 16 Apr 02:28:23 02:30:33 13° 90° (E) 02:32:42 436.795 MHz FM
ITAMSAT 1 16 Apr 02:39:16 02:42:27 16° 92° (E) 02:45:37 435.822 SSB
Oscar 19 16 Apr 02:51:44 02:56:41 43° 99° (E) 03:01:36 437.125 CW, 437.150 USB
SO-50 16 Apr 02:55:14 02:59:45 51° 243° (WSW) 03:04:18 436.795 FM
Oscar 16 16 Apr 02:59:11 03:04:18 55° 100° (E) 03:09:22 437.025 USB, Beacon 2401.1428
PCSat 16 Apr 03:08:22 03:13:29 42° 304° (NW) 03:18:38 145.825 MHz
KITSAT 1 16 Apr 03:15:02 03:21:22 26° 104° (ESE) 03:27:42 435.175 FM
OPAL 16 Apr 03:21:33 03:26:32 82° 73° (ENE) 03:31:38 ?
AO-Echo 16 Apr 03:25:09 03:29:34 35° 97° (E) 03:33:52 ?
Uribyol 2 16 Apr 03:27:16 03:32:19 51° 100° (E) 03:37:20 436.500 FM
Gurwin Techsat 1B 16 Apr 03:36:52 03:40:30 19° 92° (E) 03:44:06 435.225 FM
UOSAT-12 16 Apr 04:00:16 04:04:47 43° 53° (NE) 04:09:15 437.025 FM, 437.400 FM
AO-27 16 Apr 04:05:23 04:10:33 72° 286° (WNW) 04:15:41 436.795 MHz FM
Sapphire 16 Apr 04:08:35 04:12:06 17° 315° (NW) 04:15:38 437.095 MHz 1200 baud AX-25 AFSK
ITAMSAT 1 16 Apr 04:17:13 04:22:17 56° 288° (WNW) 04:27:19 435.822 SSB
TMSAT-1 16 Apr 04:26:35 04:31:32 39° 98° (E) 04:36:26 436.925 FM
Oscar 19 16 Apr 04:31:44 04:35:44 23° 295° (WNW) 04:39:43 437.125 CW, 437.150 USB
Oscar 10/S400 16 Apr 04:35:47 04:57:24 46° 141° (SE) 13:55:35 145.825 - 145.975 CW/USB, Beacon 145.810 USB
Oscar 16 16 Apr 04:39:43 04:43:12 18° 297° (WNW) 04:46:40 437.025 USB, Beacon 2401.1428
AO-Echo 16 Apr 05:04:23 05:08:08 23° 294° (WNW) 05:11:48 ?
OPAL 16 Apr 05:05:34 05:06:02 10° 269° (W) 05:06:29 ?
AO-7 16 Apr 05:07:29 05:14:19 28° 95° (E) 05:21:06 29.400 - 29.500 MHz
Uribyol 2 16 Apr 05:07:48 05:11:22 19° 296° (WNW) 05:14:56 436.500 FM
KITSAT 1 16 Apr 05:08:01 05:16:05 67° 303° (WNW) 05:24:12 435.175 FM
Gurwin Techsat 1B 16 Apr 05:15:36 05:20:45 52° 288° (WNW) 05:25:51 435.225 FM
Uosat F 16 Apr 05:18:28 05:23:15 44° 99° (E) 05:27:59 435.120 FM
JAS-1B 16 Apr 05:29:05 05:34:44 62° 102° (ESE) 05:40:30 435.800 - 435.900 CW/SSB
UOSAT-12 16 Apr 05:41:07 05:44:38 21° 249° (WSW) 05:48:08 437.025 FM, 437.400 FM
AO-40 16 Apr 05:50:52 11:18:52 39° 180° (S) 17:37:02 Beacon 2401.320
STRAND 1 16 Apr 05:57:22 05:58:49 11° 59° (ENE) 06:00:15 ?
TMSAT-1 16 Apr 06:06:58 06:11:13 25° 294° (WNW) 06:15:28 436.925 FM
Uosat F 16 Apr 06:58:03 07:01:43 21° 295° (WNW) 07:05:23 435.120 FM
AO-7 16 Apr 06:59:22 07:07:31 63° 293° (WNW) 07:15:41 29.400 - 29.500 MHz
KITSAT 1 16 Apr 07:07:49 07:13:09 18° 326° (NW) 07:18:30 435.175 FM
Hamsat 16 Apr 07:20:00 07:23:55 32° 97° (E) 07:27:49 145.90 MHz
JAS-1B 16 Apr 07:21:29 07:24:53 16° 300° (WNW) 07:28:16 435.800 - 435.900 CW/SSB
STRAND 1 16 Apr 07:32:06 07:37:14 89° 256° (WSW) 07:42:22 ?
JAS-2 16 Apr 07:44:57 07:48:51 20° 95° (E) 07:52:57 435.800 - 435.900 CW/SSB, 435.910 FM
RS-15 16 Apr 07:54:08 08:05:07 57° 112° (ESE) 08:15:43 29.354 - 29.394 USB, Beacon 29.352 USB
MaSat-1 16 Apr 07:57:04 07:58:45 14° 60° (ENE) 08:00:34 437.345 MHz
SO-67 16 Apr 08:05:33 08:07:50 16° 94° (E) 08:10:06 435.3500 MHz FM
AO-7 16 Apr 08:55:05 08:58:40 14° 313° (NW) 09:02:16 29.400 - 29.500 MHz
Hamsat 16 Apr 08:56:26 08:59:41 21° 292° (WNW) 09:02:57 145.90 MHz
JAS-2 16 Apr 09:29:04 09:34:09 48° 288° (WNW) 09:39:38 435.800 - 435.900 CW/SSB, 435.910 FM
MaSat-1 16 Apr 09:34:40 09:37:09 23° 249° (WSW) 09:40:00 437.345 MHz
SO-67 16 Apr 09:38:04 09:41:00 25° 288° (WNW) 09:43:54 435.3500 MHz FM
HO-68 16 Apr 09:42:40 09:48:03 22° 93° (E) 09:53:24 435.675 MHz FM
RS-15 16 Apr 10:07:11 10:17:45 44° 314° (NW) 10:28:07 29.354 - 29.394 USB, Beacon 29.352 USB
PCSat 16 Apr 10:14:42 10:18:34 19° 47° (NE) 10:22:23 145.825 MHz
Oscar 11 16 Apr 10:20:55 10:23:08 14° 92° (E) 10:25:21 145.825 FM, Beacon 2401.500 USB
KITSAT 1 16 Apr 11:08:35 11:12:50 15° 29° (NNE) 11:17:04 435.175 FM
Sapphire 16 Apr 11:11:54 11:17:09 48° 57° (ENE) 11:22:21 437.095 MHz 1200 baud AX-25 AFSK
HO-68 16 Apr 11:29:07 11:36:13 65° 290° (WNW) 11:43:17 435.675 MHz FM
PANSAT 16 Apr 11:30:19 11:32:13 13° 169° (S) 11:34:08 not established
FUNcube-1 16 Apr 11:35:06 11:38:47 28° 97° (E) 11:42:30 145.950 - 145.970 MHz USB
Oscar 11 16 Apr 11:55:23 11:59:35 49° 287° (WNW) 12:03:46 145.825 FM, Beacon 2401.500 USB
Saudisat 1A 16 Apr 11:55:41 11:59:04 21° 111° (ESE) 12:02:28 436.775 MHz
PCSat 16 Apr 11:57:05 12:02:29 67° 245° (WSW) 12:07:50 145.825 MHz
RS-15 16 Apr 12:27:03 12:34:06 18° 346° (NNW) 12:41:07 29.354 - 29.394 USB, Beacon 29.352 USB
Sapphire 16 Apr 12:56:06 13:00:12 22° 254° (WSW) 13:04:17 437.095 MHz 1200 baud AX-25 AFSK
KITSAT 1 16 Apr 13:02:34 13:10:26 51° 53° (NE) 13:18:13 435.175 FM
PANSAT 16 Apr 13:09:16 13:11:47 17° 182° (S) 13:14:17 not established
FUNcube-1 16 Apr 13:11:46 13:15:04 23° 291° (WNW) 13:18:25 145.950 - 145.970 MHz USB
HO-68 16 Apr 13:20:05 13:22:33 12° 309° (NW) 13:25:01 435.675 MHz FM
Saudisat 1A 16 Apr 13:34:14 13:38:25 39° 308° (NW) 13:42:38 436.775 MHz
AO-27 16 Apr 13:45:02 13:48:36 19° 64° (ENE) 13:52:10 436.795 MHz FM
ITAMSAT 1 16 Apr 13:56:05 14:00:08 24° 65° (ENE) 14:04:10 435.822 SSB
Oscar 19 16 Apr 14:07:31 14:12:30 55° 72° (ENE) 14:17:32 437.125 CW, 437.150 USB
Oscar 16 16 Apr 14:15:04 14:20:09 71° 74° (ENE) 14:25:18 437.025 USB, Beacon 2401.1428
AO-Echo 16 Apr 14:36:28 14:41:27 44° 71° (ENE) 14:46:21 ?
Uribyol 2 16 Apr 14:44:03 14:49:11 70° 74° (ENE) 14:54:20 436.500 FM
RS-15 16 Apr 14:44:19 14:52:19 22° 24° (NNE) 15:00:20 29.354 - 29.394 USB, Beacon 29.352 USB
PANSAT 16 Apr 14:50:07 14:51:19 11° 194° (SSW) 14:52:30 not established
Gurwin Techsat 1B 16 Apr 14:56:45 15:01:08 27° 67° (ENE) 15:05:32 435.225 FM
KITSAT 1 16 Apr 14:58:24 15:05:33 36° 252° (WSW) 15:12:40 435.175 FM
AO-27 16 Apr 15:22:38 15:27:41 52° 260° (W) 15:32:46 436.795 MHz FM
OPAL 16 Apr 15:33:10 15:37:21 24° 97° (E) 15:41:31 ?
ITAMSAT 1 16 Apr 15:34:29 15:39:21 41° 261° (W) 15:44:15 435.822 SSB
TMSAT-1 16 Apr 15:46:12 15:51:21 55° 72° (ENE) 15:56:31 436.925 FM
Oscar 19 16 Apr 15:49:00 15:52:11 16° 268° (W) 15:55:23 437.125 CW, 437.150 USB
Oscar 16 16 Apr 15:57:51 16:00:00 13° 270° (W) 16:02:09 437.025 USB, Beacon 2401.1428
AO-7 16 Apr 16:05:23 16:12:39 36° 60° (ENE) 16:19:55 29.400 - 29.500 MHz
JAS-1B 16 Apr 16:11:13 16:19:23 55° 71° (ENE) 16:26:13 435.800 - 435.900 CW/SSB
AO-Echo 16 Apr 16:16:21 16:20:21 22° 266° (W) 16:24:19 ?
Uribyol 2 16 Apr 16:26:53 16:29:08 13° 269° (W) 16:31:24 436.500 FM
Uosat F 16 Apr 16:30:36 16:35:29 55° 72° (ENE) 16:40:24 435.120 FM
ISS 16 Apr 16:35:37 16:38:25 25° 133° (SE) 16:41:14 145.800 FM
Gurwin Techsat 1B 16 Apr 16:36:03 16:40:55 36° 263° (W) 16:45:49 435.225 FM
RS-15 16 Apr 16:56:40 17:07:31 62° 53° (NE) 17:18:36 29.354 - 29.394 USB, Beacon 29.352 USB
SO-50 16 Apr 17:09:04 17:13:31 69° 119° (ESE) 17:18:00 436.795 FM
OPAL 16 Apr 17:11:28 17:16:19 40° 292° (WNW) 17:21:09 ?
TMSAT-1 16 Apr 17:28:10 17:31:35 17° 268° (W) 17:35:02 436.925 FM
AO-7 16 Apr 17:57:09 18:05:08 51° 258° (WSW) 18:13:09 29.400 - 29.500 MHz
JAS-1B 16 Apr 18:02:55 18:10:02 29° 263° (W) 18:16:17 435.800 - 435.900 CW/SSB
Uosat F 16 Apr 18:11:32 18:14:35 16° 268° (W) 18:17:39 435.120 FM
ISS 16 Apr 18:11:57 18:15:04 35° 329° (NNW) 18:18:11 145.800 FM
UOSAT-12 16 Apr 18:12:18 18:15:01 16° 109° (ESE) 18:17:47 437.025 FM, 437.400 FM
Hamsat 16 Apr 18:13:13 18:16:19 21° 68° (ENE) 18:19:28 145.90 MHz
SO-50 16 Apr 18:51:51 18:54:34 16° 317° (NW) 18:57:18 436.795 FM
RS-15 16 Apr 19:09:41 19:19:16 37° 253° (WSW) 19:29:08 29.354 - 29.394 USB, Beacon 29.352 USB
JAS-2 16 Apr 19:39:48 19:45:46 60° 73° (ENE) 19:51:08 435.800 - 435.900 CW/SSB, 435.910 FM
STRAND 1 16 Apr 19:44:15 19:48:50 33° 97° (E) 19:53:24 ?
Hamsat 16 Apr 19:48:24 19:52:07 31° 264° (W) 19:55:52 145.90 MHz
UOSAT-12 16 Apr 19:50:15 19:54:42 53° 305° (NW) 19:59:16 437.025 FM, 437.400 FM
ISS 16 Apr 19:51:17 19:52:36 12° 348° (NNW) 19:53:56 145.800 FM
SO-67 16 Apr 20:10:01 20:13:30 86° 78° (ENE) 20:17:01 435.3500 MHz FM
HO-68 16 Apr 20:12:09 20:16:13 16° 55° (NE) 20:20:18 435.675 MHz FM
Saudisat 1A 16 Apr 20:23:31 20:26:13 16° 43° (NE) 20:28:53 436.775 MHz
Oscar 11 16 Apr 21:17:23 21:17:47 10° 62° (ENE) 21:18:10 145.825 FM, Beacon 2401.500 USB
STRAND 1 16 Apr 21:23:38 21:27:54 28° 293° (WNW) 21:32:08 ?
JAS-2 16 Apr 21:27:21 21:31:07 17° 266° (W) 21:34:42 435.800 - 435.900 CW/SSB, 435.910 FM
ISS 16 Apr 21:29:35 21:30:35 11° 9° (N) 21:31:36 145.800 FM
HO-68 16 Apr 21:55:45 22:02:53 85° 73° (ENE) 22:10:04 435.675 MHz FM
Saudisat 1A 16 Apr 22:01:53 22:06:16 66° 241° (WSW) 22:10:35 436.775 MHz
FUNcube-1 16 Apr 22:31:27 22:34:36 21° 68° (ENE) 22:37:44 145.950 - 145.970 MHz USB
Oscar 11 16 Apr 22:49:03 22:53:21 73° 258° (WSW) 22:57:40 145.825 FM, Beacon 2401.500 USB
ISS 16 Apr 23:05:14 23:08:13 28° 29° (NNE) 23:11:11 145.800 FM
MaSat-1 16 Apr 23:37:30 23:40:11 28° 297° (WNW) 23:42:36 437.345 MHz
HO-68 16 Apr 23:47:22 23:51:22 16° 270° (W) 23:55:23 435.675 MHz FM
FUNcube-1 17 Apr 00:07:06 00:10:51 30° 263° (W) 00:14:34 145.950 - 145.970 MHz USB
ISS 17 Apr 00:41:55 00:45:00 34° 225° (SW) 00:48:03 145.800 FM
